Location: Baia Mare
(47.6567°N, 23.5850°E)
Time: 07:15:30
(UTC+03:00)

ISS - Pass Details

Date: 11 October 2018
Orbit: 403 x 408 km, 51.6° (Epoch: 21 October)

Event Time Altitude Azimuth Distance (km) Brightness Sun altitude
Rises 19:28:02 0° 292° (WNW) 2,339 1.4 -7.9°
Reaches altitude 10° 19:30:12 10° 284° (WNW) 1,475 0.5 -8.3°
Maximum altitude 19:33:18 37° 215° (SW) 650 -2.4 -8.8°
Drops below altitude 10° 19:36:22 10° 146° (SE) 1,466 -1.3 -9.3°
Enters shadow 19:37:36 - 140° (SE) 1,951 -0.7 -9.5°
